Location: Hilkerode
(51.5620°N, 10.3091°E)
Time: 18:52:39
(UTC+00:00)

Daily predictions for brighter satellites

Satellite Brightness Start Highest point End
(mag) Time Altitude Azimuth Time Altitude Azimuth Time Altitude Azimuth
Cosmos 332 Rocket 3.8 15:39:11 10° NNW 15:44:05 77° ENE 15:48:56 10° SSE
BREEZE-M DEB (TANK) 3.6 15:43:05 10° W 15:47:08 42° SSW 15:49:22 10° SE
IRS-1C Rocket 4.4 15:45:24 10° SE 15:50:24 45° ENE 15:55:25 10° N
SL-4 R/B 3.6 15:48:42 10° SSW 15:51:34 21° SE 15:54:36 10° E
SeaSat 1 4.3 15:52:29 10° NE 15:54:34 13° NNE 15:56:40 10° N
COSMOS 2455 3.1 15:48:35 10° SW 15:54:35 70° NW 16:00:38 10° NE
Okean O Rocket 1.7 15:50:30 10° SSE 15:54:51 87° WSW 15:59:14 10° NNW
Helios 1A Rocket 3.0 15:51:29 10° SSE 15:55:37 88° W 15:59:44 10° NNW
Meteor 1-28 Rocket 3.7 15:53:21 10° N 15:57:05 63° WNW 16:00:48 10° SSW
NOSS 2 (A) 4.2 15:55:33 10° NW 15:58:09 48° NE 16:00:27 10° ESE
CENTAUR R/B 3.7 15:52:49 10° NW 16:00:38 65° SW 16:09:10 10° SSE
CZ-4B R/B 3.4 15:56:09 10° S 16:01:28 76° WSW 16:06:55 10° NNW
Cosmos 1782 2.9 15:58:08 10° S 16:02:04 59° E 16:06:00 10° NNE
Cosmos 2228 Rocket 3.4 15:58:06 10° SSW 16:02:41 76° WNW 16:07:18 10° N
ERBS 3.3 16:00:00 10° WNW 16:03:14 49° SW 16:06:29 10° SE
USA 215 3.4 15:57:14 10° ENE 16:03:49 76° SSE 16:10:22 10° SW
Cosmos 2322 3.9 15:58:42 10° S 16:04:16 56° ESE 16:09:51 10° NE
Cosmos 2279 Rocket 4.0 15:59:00 10° N 16:05:14 65° ENE 16:11:27 10° SSE
Cosmos 1346 Rocket 2.7 16:02:21 10° N 16:06:19 79° ENE 16:10:19 10° SSE
Cosmos 1315 Rocket 3.1 16:03:12 10° S 16:07:02 49° E 16:10:58 10° NNE
Cosmos 371 Rocket 4.1 16:02:15 10° NNW 16:07:04 58° WSW 16:11:51 10° S
FENGYUN 3A 4.4 16:01:51 10° S 16:07:12 59° W 16:12:35 10° NNW
Okean-O 3.4 16:03:37 10° SE 16:07:30 31° ENE 16:11:24 10° N
Cosmos 1634 Rocket 4.2 16:03:47 10° NNW 16:09:58 79° W 16:16:09 10° S
Cosmos 2278 Rocket 2.4 16:05:36 10° NNW 16:11:08 50° NE 16:16:37 10° SE
Cosmos 1606 3.8 16:07:38 10° SSW 16:11:17 46° WNW 16:14:59 10° N
Cosmos 1666 4.2 16:13:14 10° NNE 16:15:42 16° ENE 16:18:09 10° ESE
AQUARIUS 4.3 16:11:53 10° SSE 16:16:17 54° ENE 16:20:42 10° N
Envisat 3.5 16:12:01 10° SE 16:16:38 37° ENE 16:21:17 10° N
NOSS 2-2 (D) 3.9 16:14:07 10° WSW 16:17:47 52° NW 16:21:59 11° NE
Cosmos 1400 Rocket 3.6 16:13:51 10° SSW 16:17:52 53° WNW 16:21:53 10° N
Cosmos 1707 Rocket 3.7 16:14:33 10° S 16:18:54 54° E 16:23:17 10° NNE
Cosmos 2360 Rocket 2.4 16:14:53 10° SW 16:20:33 76° WNW 16:26:17 10° NNE
Cosmos 1689 Rocket 2.7 16:17:51 10° N 16:20:52 57° WNW 16:23:51 10° SSW
STARLINK-67 3.0 16:22:04 10° SW 16:24:46 49° SSE 16:26:30 19° E
Cosmos 2369 Rocket 3.8 16:22:08 10° N 16:25:21 15° NNE 16:27:19 13° NE
Cosmos 1980 Rocket 4.2 16:23:39 10° WNW 16:27:45 20° NNW 16:31:52 10° NNE
Cosmos 1992 Rocket 4.2 16:23:06 10° NNW 16:28:11 49° ENE 16:33:16 10° SE
Nadezhda 4 Rocket 4.4 16:23:36 10° SSE 16:29:25 40° E 16:35:14 10° NNE
Meteor 1-11 Rocket 3.9 16:24:00 10° N 16:29:56 60° ENE 16:35:49 10° SSE
Cosmos 2333 Rocket 2.4 16:25:41 10° S 16:31:16 55° ESE 16:36:30 12° NE
Cosmos 1908 Rocket 4.3 16:30:29 10° N 16:34:24 29° ENE 16:38:14 10° SE
COSMO-SKYMED 1 3.8 16:34:55 18° ENE 16:36:30 22° E 16:39:52 10° SE
Shenzhou-11 Module 4.4 16:36:56 10° SSW 16:38:07 12° S 16:39:19 10° SE
RESURS DK-1 2.9 16:35:02 10° S 16:38:53 40° ESE 16:41:15 20° NE
Meteor 1-27 Rocket 4.1 16:33:57 10° SSE 16:39:18 43° E 16:44:48 10° NNE
USA 267 4.5 16:34:07 10° SSE 16:40:19 44° SW 16:46:32 10° WNW
ATLAS 3B R/B 3.8 16:34:12 10° NW 16:40:33 46° WSW 16:47:02 10° SSE
ISS -3.1 16:37:51 10° W 16:41:08 54° SSW 16:44:04 13° SE
Cosmos 2237 Rocket 3.1 16:36:25 10° SSE 16:41:11 28° ESE 16:43:57 19° ENE
STARLINK-46 4.2 16:40:25 10° SSW 16:42:35 21° SE 16:43:15 20° ESE
NOSS 3-4 (A) 3.5 16:36:56 10° SW 16:42:59 88° SE 16:48:17 16° NE
NOSS 3-4 (C) 3.5 16:37:02 10° SW 16:43:06 87° SE 16:48:23 16° NE
CZ-4B R/B 3.9 16:41:51 10° NNW 16:44:38 22° WNW 16:47:25 10° WSW
Cosmos 2322 Rocket 3.6 16:40:18 10° WSW 16:45:23 33° NW 16:50:30 10° NNE
Cosmos 1812 3.0 16:42:54 10° SSE 16:46:36 45° E 16:49:28 16° NNE
COBE Rocket 3.7 16:44:11 10° NNE 16:48:50 67° ESE 16:53:28 10° S
YAOGAN 1 3.3 16:45:25 10° SE 16:49:13 31° ENE 16:53:01 10° N
Exosat Rocket 3.9 16:45:01 10° S 16:50:03 44° ESE 16:53:10 20° NE
Cosmos 1900 4.2 16:45:36 10° NW 16:50:30 66° NE 16:55:22 10° SE
SL-16 R/B 3.8 16:46:40 10° W 16:51:33 29° NW 16:56:29 10° NNE
NOAA 12 4.1 16:52:00 10° SSE 16:57:19 87° ENE 17:02:39 10° NNW
Cosmos 2219 Rocket 2.1 16:52:32 10° SSW 16:58:09 82° ESE 17:02:43 16° NNE
BREEZE-M R/B 3.1 16:53:59 10° WSW 16:59:45 67° S 17:01:16 31° ESE
Ariane Rocket 4.1 17:00:26 23° NE 17:00:26 23° NE 17:03:56 10° N
CORIOLIS 4.5 16:55:01 10° S 17:00:27 72° WSW 17:05:56 10° NNW
Cosmos 1733 Rocket 3.3 16:56:59 10° NNW 17:01:21 72° W 17:05:42 10° S
Cosmos 1536 2.7 16:59:32 10° N 17:03:35 71° ENE 17:07:34 10° SSE
Cosmos 1500 3.5 17:03:07 10° NNW 17:06:54 68° W 17:10:37 10° S
Okean 1-7 4.5 17:03:20 10° SE 17:05:18 20° ESE 17:05:18 20° ESE
SMAP 4.0 17:03:00 10° S 17:07:31 49° W 17:12:04 10° NNW
Cosmos 1980 3.9 17:05:51 10° S 17:11:14 48° ESE 17:13:46 29° NE
CZ-4 R/B 1.3 17:07:26 10° SSE 17:11:16 55° ENE 17:15:04 10° N
Cosmos 2297 3.9 17:05:53 10° NNW 17:11:26 48° NE 17:14:46 23° ESE
H-2A R/B 4.2 17:12:24 10° SSW 17:15:51 37° W 17:19:19 10° NNW
Cosmos 1943 Rocket 3.2 17:11:18 10° NNW 17:16:01 26° NE 17:16:12 26° NE
Cosmos 1441 Rocket 4.1 17:14:01 10° N 17:16:27 32° NNE 17:16:27 32° NNE
ATLAS 2AS CENTAUR R/B 3.5 17:13:15 10° WSW 17:21:11 59° NW 17:26:45 21° NE
Lacrosse 5 rocket 1.6 17:17:09 10° SW 17:21:14 47° SE 17:21:46 44° ESE
CSL-04 Rocket 3.5 17:17:40 10° SSE 17:22:53 64° ENE 17:28:08 10° N
NOSS 7 (D) 4.3 17:20:33 10° NW 17:23:28 68° SW 17:23:57 55° S
YAOGAN 6 2.4 17:20:13 10° SSE 17:23:44 87° WSW 17:27:21 10° NNW
COSMOS 2428 2.9 17:18:07 10° SW 17:23:47 72° WNW 17:27:49 20° NNE
SKYMED 2 3.5 17:23:37 40° NE 17:24:57 59° E 17:29:15 10° S
Cosmos 2195 Rocket 4.5 17:22:16 10° SSE 17:28:18 57° E 17:34:27 10° NNE
Cosmos 1782 Rocket 3.5 17:24:29 10° N 17:28:48 54° ENE 17:28:57 53° E
Cosmos 292 Rocket 3.7 17:24:36 10° NNW 17:29:32 85° ENE 17:34:23 10° SSE
SL-4 R/B 1.9 17:26:53 10° WSW 17:30:39 66° SSE 17:31:03 61° SE
SeaSat 1 3.1 17:31:15 36° NE 17:31:15 36° NE 17:35:29 10° NNW
Cosmos 2251 Rocket 3.4 17:28:09 10° SSW 17:33:28 88° ESE 17:36:13 30° NNE
Cosmos 1092 Rocket 3.9 17:27:28 10° S 17:33:45 72° E 17:40:01 10° NNE
NOSS 0 Rocket 3.8 17:28:07 10° SSW 17:34:20 77° ESE 17:37:30 31° NE
CSL-04 Debris 4.0 17:29:43 10° SSE 17:35:10 80° ENE 17:40:39 10° NNW
Cosmos 921 Rocket 3.3 17:33:01 10° NNW 17:36:26 49° NNE 17:36:26 49° NNE
ATLAS 5 CENTAUR R/B 3.3 17:35:22 10° SSW 17:35:55 15° SSW 17:35:55 15° SSW
Cosmos 2242 Rocket 3.6 17:33:03 10° S 17:37:37 87° WNW 17:40:14 26° N
FengYun 1-2 T 4.5 17:33:59 10° S 17:39:26 70° WSW 17:44:58 10° NNW
Cosmos 1862 Rocket 4.2 17:36:21 10° SSW 17:40:36 54° WNW 17:44:16 14° N
COSMOS 2455 4.4 17:36:37 10° W 17:41:35 26° NNW 17:44:47 17° NNE
Cosmos 1703 Rocket 3.5 17:38:38 10° S 17:42:45 63° ESE 17:42:45 63° ESE
H-2A R/B 4.3 17:46:59 11° N 17:46:59 11° N 17:47:08 10° N
Okean-O 4.2 17:39:48 10° SSW 17:43:54 37° W 17:48:03 10° NNW
Genesis I 3.5 17:41:46 10° NW 17:45:01 57° NNW 17:45:01 57° NNW
USA 215 3.4 17:44:09 37° NE 17:46:47 62° NNW 17:53:13 10° W
Cosmos 1666 3.4 17:47:58 10° NNW 17:51:38 50° W 17:55:15 10° S
NOAA 11 4.0 17:49:09 10° SSE 17:54:36 85° ENE 18:00:07 10° NNW
Cosmos 2278 Rocket 3.7 17:49:58 10° NW 17:55:05 36° WSW 18:00:10 10° S
Cosmos 2344 4.3 17:46:35 10° NW 17:55:08 54° NNE 17:59:08 39° E
Envisat 4.4 17:50:57 10° SSW 17:55:40 38° W 18:00:25 10° NNW
Cosmos 1867 3.6 17:55:05 10° NW 18:00:20 62° NNE 18:00:20 62° NNE
S3M 4.0 17:54:35 10° N 18:00:12 54° NE 18:00:12 54° NE
IRS-1A Rocket 4.3 18:00:57 62° E 18:01:12 63° ENE 18:07:02 10° N
BREEZE-M DEB (TANK) 3.8 18:01:36 10° WSW 18:04:17 27° SW 18:04:17 27° SW
Cosmos 2360 Rocket 4.2 18:01:13 10° W 18:05:33 22° NW 18:08:43 14° N
Cosmos 2369 Rocket 3.1 18:05:33 10° NNW 18:09:07 33° N 18:09:07 33° N
SL-16 R/B 3.1 18:06:33 10° S 18:09:56 34° SSE 18:09:56 34° SSE
COSMO-SKYMED 1 3.4 18:12:09 44° NW 18:12:56 50° WNW 18:17:08 10° SW
Cosmos 1553 Rocket 3.9 18:09:17 10° N 18:15:40 87° E 18:22:05 10° S
Cosmos 2333 Rocket 3.5 18:10:33 10° WSW 18:15:49 36° NW 18:18:31 24° N
RESURS DK-1 3.9 18:13:21 10° WSW 18:17:02 30° NW 18:17:10 30° NW
ISS -0.9 18:15:17 10° WSW 18:17:00 15° SW 18:17:00 15° SW
Cosmos 1428 Rocket 4.4 18:14:32 10° S 18:20:43 85° W 18:23:49 32° N
NOSS 3-1 (C) 4.0 18:15:45 10° NW 18:22:40 55° NNE 18:22:54 54° NE
Cosmos 2237 Rocket 2.5 18:19:14 10° SW 18:24:53 62° NW 18:25:48 54° NNW
YAOGAN 1 4.1 18:21:16 10° SSW 18:25:15 36° W 18:29:16 10° NNW
USA 229 DEB 3.9 18:22:44 10° NW 18:29:29 57° NNE 18:29:29 57° NNE
USA 229 3.9 18:22:50 10° NW 18:29:34 57° NNE 18:29:34 57° NNE
NOSS 3-4 (A) 4.5 18:28:53 10° W 18:34:37 37° NNW 18:35:45 35° N
NOSS 3-4 (C) 4.5 18:28:59 10° W 18:34:43 37° NNW 18:35:51 35° N
NOSS 3-1 (A) 4.3 18:28:07 10° NW 18:34:26 49° NNE 18:34:26 49° NNE
Cosmos 2026 Rocket 4.4 18:31:12 10° SSW 18:37:10 59° WNW 18:40:53 24° N
Ariane Rocket 4.2 18:40:38 35° NNW 18:40:38 35° NNW 18:43:36 10° NNW
Cosmos 489 Rocket 4.5 18:32:26 10° NNW 18:38:49 79° WSW 18:38:49 79° WSW
Cosmos 2219 Rocket 3.9 18:38:06 10° W 18:42:47 26° NW 18:44:27 23° NNW
CZ-4 R/B 4.2 18:44:09 10° SW 18:46:39 16° W 18:49:08 10° NW
Lacrosse 5 rocket 4.1 18:56:22 10° W 18:57:26 17° W 18:57:26 17° W
Cosmos 1943 Rocket 3.5 18:54:47 10° NNW 18:57:45 32° NNW 18:57:45 32° NNW
SeaSat 1 4.4 19:11:02 25° NW 19:11:02 25° NW 19:13:12 10° NW
ATLAS 2AS CENTAUR R/B 4.0 19:06:30 10° WNW 19:13:45 35° N 19:14:11 35° N
USA 215 4.2 19:31:30 41° NW 19:31:30 41° NW 19:35:48 10° WNW
